Flag for Canada Weather past 2 weeks in St. Catharines, Ontario, Canada

Now
79 °F

Warm.


Feels Like: 81 °F
Forecast: 70 / 85 °F
Wind: 13 mph from Southwest

Location: Port Colborne Airport

Current Time: Jul 30, 2015 at 2:12:20 AM

Latest Report: Jul 30, 2015 at 1:00 AM


Visibility: N/A

Pressure: 29.85 "Hg

Humidity: 76%

Dew point: 71 °F

Location of St. CatharinesLocation

Historic Weather in St. Catharines — Graph

°F

St. Catharines temperature yesterday

Maximum temperature yesterday: 82 °F (at 5:00 PM)
Minimum temperature yesterday: 72 °F (at 5:00 AM)
Average temperature yesterday: 77 °F

Past Weeks' High & Low Weather Summary

 TemperatureHumidityPressure
High82 °F (Jul 29, 5:00 PM)100% (Jul 18, 1:00 PM)30.14 "Hg (Jul 18, 1:00 PM)
Low57 °F (Jul 15, 10:00 AM)37% (Jul 21, 7:00 PM)29.65 "Hg (Jul 21, 4:00 AM)
Average70 °F73%29.92 "Hg
* Reported Jul 15 1:00 AM — Jul 30 1:00 AM, St. Catharines, Weather by CustomWeather, © 2015

Note: Actual official high and low records may vary slightly from our data, if they occured in-between our weather recording intervals... More about our weather records

Advertising

St. Catharines weather history for previous 24 hours

 ConditionsComfort  
Time TempWeatherWind HumidityBarometerVisibility
1:00 AM
Thu, Jul 30
79 °FWarm.13 mph76%29.85 "HgN/A
12:00 AM78 °FWarm.8 mph80%29.85 "HgN/A
11:00 PM
Wed, Jul 29
78 °FWarm.9 mph81%29.86 "HgN/A
10:00 PM78 °FWarm.12 mph85%29.86 "HgN/A
9:00 PM78 °FWarm.10 mph86%29.86 "HgN/A
8:00 PM78 °FWarm.5 mph83%29.88 "HgN/A
7:00 PM79 °FWarm.7 mph79%29.88 "HgN/A
6:00 PM81 °FWarm.7 mph69%29.88 "HgN/A
5:00 PM82 °FWarm.3 mph61%29.89 "HgN/A
4:00 PM81 °FWarm.3 mph63%29.91 "HgN/A
3:00 PM80 °FWarm.5 mph63%29.93 "HgN/A
2:00 PM79 °FWarm.3 mph67%29.95 "HgN/A
1:00 PM77 °FMild.5 mph70%29.96 "HgN/A
12:00 PM76 °FMild.5 mph73%29.98 "HgN/A
11:00 AM75 °FMild.7 mph72%29.98 "HgN/A
10:00 AM74 °FMild.6 mph72%29.99 "HgN/A
9:00 AM74 °FMild.8 mph70%29.99 "HgN/A
8:00 AM74 °FMild.7 mph76%29.98 "HgN/A
7:00 AM74 °FMild.7 mph77%29.98 "HgN/A
6:00 AM74 °FMild.8 mph79%29.98 "HgN/A
5:00 AM72 °FMild.5 mph85%29.97 "HgN/A
4:00 AM74 °FMild.1 mph87%29.99 "HgN/A
3:00 AM74 °FMild.1 mph87%29.99 "HgN/A
2:00 AM76 °FMild.2 mph78%30.00 "HgN/A
Weather by CustomWeather, © 2015

See weather overviewHow to use our weather pages